Vorticity
nan nan nan nan nan nan nan nan nan nan nan nan nan nan nan nan nan nan nan nan nan nan nan nan nan nan nan nan nan nan nan nan nan nan nan nan nan nan nan nan nan nan nan nan nan nan nan nan nan nan nan nan nan nan nan nan nan nan nan nan nan nan nan nan nan nan nan nan nan
nan 10 9 9 12 12 10 7 6 7 9 10 9 9 9 9 8 8 8 8 8 8 8 7 5 5 4 6 10 10 8 7 8 9 9 7 7 9 11 9 8 9 10 11 13 13 9 9 13 12 11 8 7 8 8 8 8 8 6 10 13 9 7 5 5 6 8 9 nan
nan 9 9 8 9 11 10 7 6 7 9 10 10 9 9 9 9 8 9 8 8 8 9 7 5 5 5 8 10 9 8 7 8 10 10 7 5 8 10 9 8 10 11 11 12 13 11 10 11 10 9 8 7 8 7 7 9 10 8 10 13 10 8 6 6 8 10 6 nan
nan 9 8 7 8 10 10 7 7 8 10 10 10 10 10 9 9 9 9 9 9 9 8 7 7 7 7 7 8 9 7 7 9 10 9 7 6 7 9 9 9 10 11 9 9 12 14 15 13 8 6 6 8 9 9 7 9 12 12 10 10 8 9 8 8 9 9 6 nan
nan 9 8 7 8 11 10 8 8 9 9 10 10 10 10 10 9 9 9 9 8 8 7 8 9 8 7 7 8 9 8 7 9 11 8 7 7 7 7 8 10 11 10 9 8 10 14 19 17 9 6 7 8 6 5 7 11 13 13 11 9 8 8 8 9 9 8 7 nan
nan 8 9 8 9 11 10 9 9 10 9 8 8 9 10 9 8 8 8 8 8 7 7 8 9 9 8 9 9 10 9 9 8 8 8 8 7 6 7 8 9 11 10 9 9 10 14 20 18 11 8 8 7 5 4 8 11 11 12 11 10 9 8 9 10 8 6 5 nan
nan 7 9 9 10 11 11 10 9 9 10 8 6 7 9 9 8 8 10 10 9 8 8 8 7 8 8 9 9 9 9 9 8 7 8 8 6 7 8 8 8 9 10 10 10 11 13 17 15 10 9 10 8 4 5 8 10 10 10 11 11 9 8 10 11 8 4 3 nan
nan 8 8 8 8 10 11 11 10 9 9 7 6 6 8 9 9 10 11 11 9 8 8 7 6 8 8 8 8 8 8 8 9 9 9 7 6 8 9 8 8 9 10 10 10 11 15 16 11 9 9 11 8 5 3 6 9 10 10 11 11 9 9 9 9 8 5 5 nan
nan 7 8 9 8 10 11 11 10 8 7 6 7 7 8 9 10 11 11 10 8 8 8 7 7 8 9 9 8 8 8 7 8 9 9 7 6 8 9 8 7 9 10 10 9 10 16 16 10 8 8 9 8 6 4 6 9 10 11 11 9 8 9 8 7 8 8 8 nan
nan 8 8 8 8 10 12 12 10 8 6 6 7 8 7 8 11 11 11 9 8 8 8 7 7 8 9 9 9 9 9 8 7 8 8 7 7 8 9 8 6 8 9 10 10 10 14 13 8 7 8 7 7 8 7 7 9 11 13 10 5 6 8 8 7 8 10 9 nan
nan 8 8 7 7 10 12 12 10 8 7 7 8 8 7 8 10 10 10 9 8 7 8 8 7 8 8 8 8 9 9 9 7 8 8 7 8 9 9 8 7 8 9 10 12 12 11 7 4 5 8 10 9 8 7 7 10 12 13 10 6 6 8 8 8 8 8 7 nan
nan 8 8 7 8 9 10 11 9 7 6 6 8 9 9 8 7 8 8 9 8 9 9 9 8 8 9 8 7 8 9 8 8 8 8 7 8 8 9 8 8 9 9 11 12 12 8 5 4 4 7 12 12 7 3 5 10 11 12 11 9 7 7 7 9 9 7 5 nan
nan 7 6 7 8 9 9 10 9 6 5 6 8 9 9 7 7 8 8 8 8 9 9 9 9 8 8 7 8 8 9 8 8 8 8 7 7 8 9 8 8 9 11 11 11 10 8 5 5 5 7 10 10 6 3 5 8 10 10 10 10 8 8 8 9 8 6 6 nan
nan 6 6 7 8 9 8 9 8 6 5 7 9 9 9 8 8 9 8 7 8 9 9 9 9 8 7 7 8 8 9 9 8 8 7 7 7 8 8 7 8 9 10 10 9 8 8 7 7 7 6 7 7 7 7 7 7 8 8 9 10 10 10 10 8 7 6 6 nan
nan 7 7 8 8 9 7 8 8 6 5 6 8 9 9 8 8 8 8 8 9 10 8 8 8 7 7 8 9 9 9 9 7 7 7 7 8 8 8 7 7 8 9 9 9 9 8 8 8 8 7 7 7 8 8 7 7 7 7 9 10 12 12 11 9 8 6 6 nan
nan 8 8 8 8 8 8 8 8 6 6 6 7 8 8 8 8 7 7 8 10 9 7 7 8 8 7 7 9 10 10 8 7 7 7 7 7 8 8 8 7 8 7 8 9 9 9 9 9 8 8 8 8 8 8 8 7 7 7 9 11 12 12 11 11 9 8 7 nan
nan 9 10 9 8 8 8 8 8 7 6 6 7 8 8 8 7 6 6 8 9 6 5 7 9 8 7 8 9 9 9 7 7 7 6 6 7 7 8 8 8 8 8 8 8 8 8 9 9 9 9 9 9 9 8 8 8 7 8 9 10 11 11 12 12 11 10 8 nan
nan 10 10 9 8 8 8 9 8 8 7 7 8 9 9 8 7 6 7 8 7 5 5 8 10 8 6 8 9 8 7 7 6 6 7 7 8 8 8 8 9 9 9 8 8 7 7 8 9 10 10 10 10 9 9 9 9 8 8 8 10 10 11 12 13 13 11 9 nan
nan 10 9 9 9 8 8 9 9 9 9 9 9 8 8 8 8 8 8 7 7 7 7 8 8 8 6 7 8 8 9 7 5 7 8 8 8 8 7 8 9 9 9 9 9 8 8 9 9 9 10 10 9 9 9 9 9 9 9 9 9 9 10 11 12 12 11 10 nan
nan 9 9 9 9 9 9 9 10 9 9 8 8 8 9 10 9 8 7 7 8 9 8 8 7 7 6 6 7 8 10 8 5 7 8 8 8 8 8 8 9 10 10 10 9 9 9 9 10 10 9 9 8 8 9 9 9 9 10 9 7 7 8 9 11 12 11 11 nan
nan 8 9 9 9 9 9 9 9 8 8 8 8 9 9 10 9 8 9 10 11 10 9 8 7 6 6 6 7 9 10 8 6 7 8 8 8 9 9 9 9 10 10 9 9 9 9 10 10 10 10 9 9 8 8 9 8 9 10 9 7 7 8 9 10 11 10 11 nan
nan 9 8 9 9 8 8 9 8 8 8 9 9 8 8 8 9 10 11 12 11 9 8 8 7 7 7 7 8 9 10 8 7 7 8 8 8 9 10 10 9 9 9 10 10 10 10 11 11 11 11 10 9 8 8 8 8 9 9 8 8 8 9 9 10 9 10 10 nan
nan 9 9 9 9 8 8 9 9 8 8 8 8 8 8 8 9 10 11 10 8 7 7 8 8 8 8 9 9 9 9 7 6 7 8 7 7 8 9 9 9 9 11 12 10 8 8 9 10 11 11 9 9 9 9 9 9 9 8 8 8 9 9 10 10 9 10 10 nan
nan 9 10 10 9 9 9 9 8 7 8 8 9 8 8 9 10 10 9 8 7 7 8 8 7 8 10 10 10 10 8 6 6 7 7 7 7 7 9 10 10 11 11 7 -1 -3 1 5 7 9 10 9 9 10 10 10 10 9 8 8 8 8 9 9 10 10 10 10 nan
nan 10 10 9 9 9 8 7 7 8 9 9 9 9 9 10 10 10 9 8 8 8 9 9 9 10 11 12 11 11 9 8 7 7 6 6 7 8 9 9 10 9 7 -4 -13 -9 -2 4 7 9 9 10 10 10 10 10 10 9 9 8 8 9 8 8 9 10 10 11 nan
nan 9 9 9 8 8 8 8 9 9 9 10 9 9 10 11 11 10 8 8 9 10 11 12 11 10 11 12 10 10 10 9 8 7 6 6 7 8 9 8 9 7 1 -11 -12 -5 0 4 7 10 13 13 10 10 10 10 10 9 10 10 10 9 8 7 8 8 10 10 nan
nan 9 9 8 7 8 9 10 9 9 9 9 9 10 11 12 10 9 8 9 10 12 13 13 12 11 13 12 9 8 8 8 9 9 8 8 7 7 8 8 8 4 -5 -13 -8 -1 3 5 6 9 15 15 12 11 11 9 9 10 11 11 11 10 9 8 8 8 8 9 nan
nan 8 7 7 7 9 10 10 8 8 9 10 10 11 11 10 8 8 9 10 11 12 12 12 12 13 12 10 8 8 9 9 10 10 10 10 9 9 8 8 6 -0 -9 -10 -4 2 5 6 6 7 10 14 18 15 12 10 10 11 11 11 10 10 9 9 9 9 8 8 nan
nan 8 7 6 7 9 9 9 8 9 10 11 11 10 8 8 8 8 9 10 11 11 10 11 11 10 8 6 8 10 11 10 10 10 10 9 10 10 8 7 5 -0 -5 -4 1 4 6 7 7 7 7 13 18 15 13 11 11 10 10 9 9 8 8 8 8 8 8 9 nan
nan 8 7 7 8 8 9 9 9 10 11 11 9 8 7 7 8 9 11 11 10 9 9 10 9 7 6 7 9 10 10 10 10 9 9 8 7 7 7 8 6 2 -1 -0 4 6 7 8 8 8 7 11 16 17 13 10 9 8 8 8 7 7 7 8 7 8 8 7 nan
nan 8 8 8 8 8 9 9 10 10 10 9 8 7 7 8 9 11 12 11 10 9 10 10 7 7 8 10 9 8 8 9 9 9 8 7 6 7 8 8 7 3 -1 0 4 6 7 8 8 8 7 12 17 17 12 8 8 8 7 7 6 7 8 9 9 8 8 7 nan
nan 9 8 8 8 9 9 9 10 10 9 8 8 8 8 9 11 11 11 9 9 10 11 9 8 9 10 10 9 8 8 9 8 8 8 8 9 9 8 9 9 5 -0 -0 3 5 6 7 8 8 8 12 18 17 13 9 9 9 8 8 8 8 8 7 8 8 8 8 nan
nan 10 9 8 8 8 9 9 10 10 9 9 8 8 9 10 10 10 10 9 10 10 10 8 9 10 10 10 9 8 8 7 8 9 10 10 10 8 8 10 10 4 -2 -1 2 4 5 7 8 8 8 14 22 21 16 11 10 9 8 7 8 8 8 7 7 7 9 10 nan
nan 10 10 9 8 8 9 9 9 9 9 8 9 9 10 10 9 9 9 9 10 10 10 9 10 10 10 9 8 8 7 6 9 11 12 11 11 9 8 9 6 -1 -4 -2 2 4 6 7 8 9 10 20 27 23 17 12 10 8 6 6 6 7 8 9 9 10 10 11 nan
nan 10 10 9 9 9 9 9 9 9 8 8 8 9 10 10 10 10 9 8 9 10 10 9 10 10 10 9 9 8 7 8 10 10 10 10 10 10 8 7 2 -2 -2 1 4 5 7 8 9 10 14 25 28 22 15 12 10 9 7 7 7 7 8 9 10 11 12 13 nan
nan 10 9 9 9 9 9 9 9 8 8 7 8 10 11 10 10 10 9 9 10 10 9 9 8 8 8 9 8 8 8 10 9 9 9 9 9 8 7 7 4 3 4 5 6 6 7 8 8 11 17 27 24 17 13 12 12 11 10 9 9 9 9 11 11 11 12 12 nan
nan 10 10 9 8 9 9 9 9 8 7 8 10 11 11 11 11 10 10 11 11 10 9 8 7 7 7 6 5 6 7 8 8 7 8 8 8 7 6 7 7 7 7 7 5 5 6 7 8 11 18 23 17 13 11 11 11 11 12 12 12 12 12 12 13 12 12 10 nan
nan 10 9 8 8 8 9 9 8 8 8 10 11 10 10 11 11 10 10 10 10 9 9 8 7 7 6 4 5 6 7 7 7 7 8 9 8 6 5 6 7 8 6 4 3 4 5 7 8 10 15 16 13 12 12 11 10 10 10 12 13 13 13 12 12 12 12 8 nan
nan 10 9 8 8 8 8 8 8 9 10 10 9 8 9 10 9 9 9 10 10 9 8 7 6 6 5 5 7 8 8 8 8 8 8 8 6 3 2 6 7 6 4 2 3 4 6 7 8 10 13 16 16 14 13 11 10 9 10 11 12 13 13 12 11 11 11 9 nan
nan 11 10 9 9 8 8 8 9 9 10 10 8 9 10 10 8 9 10 10 10 9 8 6 6 6 5 6 8 9 8 8 9 9 8 7 5 3 6 9 9 7 6 6 6 7 7 8 9 11 16 19 18 15 13 11 10 10 10 10 11 12 13 13 11 10 10 11 nan
nan nan nan nan nan nan nan nan nan nan nan nan nan nan nan nan nan nan nan nan nan nan nan nan nan nan nan nan nan nan nan nan nan nan nan nan nan nan nan nan nan nan nan nan nan nan nan nan nan nan nan nan nan nan nan nan nan nan nan nan nan nan nan nan nan nan nan nan nan
CAPE
nan nan nan nan nan nan nan nan nan nan nan nan nan nan nan nan nan nan nan nan nan nan nan nan nan nan nan nan nan nan nan nan nan nan nan nan nan nan nan nan 0 1 1 1 1 1 0 nan 0 0 1 1 0 0 0 nan 0 nan nan nan 0 1 1 1 0 0 0 0 0
nan nan nan nan nan nan nan nan nan nan nan nan nan nan nan nan nan nan nan nan nan nan nan nan nan nan nan nan nan nan nan nan nan nan nan nan nan nan nan nan nan nan nan 1 1 1 1 0 1 1 1 1 0 0 0 0 0 nan nan 0 0 0 0 1 1 1 0 0 nan
nan nan nan nan nan nan nan nan nan nan nan nan nan nan nan nan nan nan nan nan nan nan nan nan nan nan nan nan nan nan nan nan nan nan nan nan nan nan nan nan nan nan nan nan 1 1 1 nan 1 1 2 0 0 0 0 0 0 0 0 0 nan 0 0 0 1 1 1 1 1
nan nan nan nan nan nan nan nan nan nan nan nan nan nan nan nan nan nan nan nan nan nan nan nan nan nan nan nan nan nan nan nan nan nan nan nan nan nan nan nan nan nan nan nan nan nan 2 nan 0 0 1 0 0 nan nan nan nan 0 0 0 nan nan nan 0 0 0 1 2 1
nan nan nan nan nan nan nan nan nan nan nan nan nan nan nan nan nan nan nan nan nan nan nan nan nan nan nan nan nan nan nan nan nan nan nan nan nan nan nan nan nan nan nan nan nan nan 1 0 0 0 0 0 0 nan nan nan nan 0 0 1 1 0 0 nan nan nan 1 1 1
nan nan nan nan nan nan nan nan nan nan nan nan nan nan nan nan nan nan nan nan nan nan nan nan nan nan nan nan nan nan nan nan nan nan nan nan nan nan nan nan nan nan nan nan nan nan nan 1 1 1 0 0 nan nan nan nan nan nan nan nan 1 0 0 0 0 0 0 0 0
nan nan nan nan nan nan nan nan nan nan nan nan nan nan nan nan nan nan nan nan nan nan nan nan nan nan nan nan nan nan nan nan nan nan nan nan nan nan nan nan nan nan nan nan nan nan nan 1 2 2 2 2 0 nan nan nan nan nan nan nan 0 0 0 0 1 1 0 nan nan
nan nan nan nan nan nan nan nan nan nan nan nan nan nan nan nan nan nan nan nan nan nan nan nan nan nan nan nan nan nan nan nan nan nan nan nan nan nan nan nan nan nan nan nan nan nan nan nan 1 1 2 2 1 nan nan nan nan nan nan nan nan nan nan 0 0 0 1 0 0
nan nan nan nan nan nan nan nan nan nan nan nan nan nan nan nan nan nan nan nan nan nan nan nan nan nan nan nan nan nan nan nan nan nan nan nan nan nan nan nan nan nan nan nan nan nan nan nan nan nan nan 2 1 nan nan nan nan nan nan nan nan nan nan nan nan nan 0 1 0
nan nan nan nan nan nan nan nan nan nan nan nan nan nan nan nan nan nan nan nan nan nan nan nan nan nan nan nan nan nan nan nan nan nan nan nan nan nan nan nan nan nan nan nan nan nan nan nan nan nan nan nan nan nan nan nan 0 nan nan nan nan nan nan nan nan nan 0 1 1
nan nan nan nan nan nan nan nan nan nan nan nan nan nan nan nan nan nan nan nan nan nan nan nan nan nan nan nan nan nan nan nan nan nan nan nan nan nan nan nan nan nan nan nan nan nan nan nan nan nan nan nan nan nan nan nan 1 0 0 nan nan nan nan nan nan nan nan 0 0
nan nan nan nan nan nan nan nan nan nan nan nan nan nan nan nan nan nan nan nan nan nan nan nan nan nan nan nan nan nan nan nan nan nan nan nan nan nan nan nan nan nan nan nan nan nan nan nan nan nan nan nan nan nan nan nan 1 0 0 nan nan nan nan nan nan nan nan nan 0
nan nan nan nan nan nan nan nan nan nan nan nan nan nan nan nan nan nan nan nan nan nan nan nan nan nan nan nan nan nan nan nan nan nan nan nan nan nan nan nan nan nan nan nan nan nan nan nan nan nan nan nan nan nan nan nan 1 1 1 0 nan nan nan nan nan nan nan nan nan
nan nan nan nan nan nan nan nan nan nan nan nan nan nan nan nan nan nan nan nan nan nan nan nan nan nan nan nan nan nan nan nan nan nan nan nan nan nan nan nan nan nan nan nan nan nan nan nan nan nan nan nan nan nan nan nan nan 2 2 1 0 nan nan nan nan nan nan nan nan
nan nan nan nan nan nan nan nan nan nan nan nan nan nan nan nan nan nan nan nan nan nan nan nan nan nan nan nan nan nan nan nan nan nan nan nan nan nan nan nan nan nan nan nan nan nan nan nan nan nan nan nan nan nan nan nan nan 0 0 1 1 nan nan nan nan nan nan nan nan
nan nan nan nan nan nan nan nan nan nan nan nan nan nan nan nan nan nan nan nan nan nan nan nan nan nan nan nan nan nan nan nan nan nan nan nan nan nan nan nan nan nan nan nan nan nan nan nan nan nan nan nan nan nan nan nan nan nan nan nan nan nan nan nan nan nan nan nan nan
nan nan nan nan nan nan nan nan nan nan nan nan nan nan nan nan nan nan nan nan nan nan nan nan nan nan nan nan nan nan nan nan nan nan nan nan nan nan nan nan nan nan nan nan nan nan nan nan nan nan nan nan nan nan nan nan nan nan nan nan nan nan nan nan nan nan nan nan nan
nan nan nan nan nan nan nan nan nan nan nan nan nan nan nan nan nan nan nan nan nan nan nan nan nan nan nan nan nan nan nan nan nan nan nan nan nan nan nan nan nan nan nan nan nan nan nan nan nan nan nan nan nan nan nan nan nan nan nan nan nan nan nan nan nan nan nan nan nan
nan nan nan nan nan nan nan nan nan nan nan nan nan nan nan nan nan nan nan nan nan nan nan nan nan nan nan nan nan nan nan nan nan nan nan nan nan nan nan nan nan nan nan nan nan nan nan nan nan nan nan nan nan nan nan nan nan nan nan nan nan nan nan nan nan nan nan nan nan
nan nan nan nan nan nan nan nan nan nan nan nan nan nan nan nan nan nan nan nan nan nan nan nan nan nan nan nan nan nan nan nan nan nan nan nan nan nan nan nan nan nan nan nan nan nan nan nan nan nan nan nan nan nan nan nan nan nan nan nan nan nan nan nan nan nan nan nan nan
nan nan nan nan nan nan nan nan nan nan nan nan nan nan nan nan nan nan nan nan nan nan nan nan nan nan nan nan nan nan nan nan nan nan nan nan nan nan nan nan nan nan nan nan nan nan nan nan nan nan nan nan nan nan nan nan nan nan nan nan nan nan nan nan nan nan nan nan nan
nan nan nan nan nan nan nan nan nan nan nan nan nan nan nan nan nan nan nan nan nan nan nan nan nan nan nan nan nan nan nan nan nan nan nan nan nan nan nan nan nan nan nan nan nan nan nan nan nan nan nan nan nan nan nan nan nan nan nan nan nan nan nan nan nan nan nan nan nan
nan nan nan nan nan nan nan nan nan nan nan nan nan nan nan nan nan nan nan nan nan nan nan nan nan nan nan nan nan nan nan nan nan nan nan nan nan nan nan nan nan nan nan nan nan nan nan nan nan nan nan nan nan nan nan nan nan nan nan nan nan nan nan nan nan nan nan nan nan
nan nan nan nan nan nan nan nan nan nan nan nan nan nan nan nan nan nan nan nan nan nan nan nan nan nan nan nan nan nan nan nan nan nan nan nan nan nan nan nan nan nan nan nan nan nan nan nan nan nan nan nan nan nan nan nan nan nan nan nan nan nan nan nan nan nan nan nan nan
nan nan nan nan nan nan nan nan nan nan nan nan nan nan nan nan nan nan nan nan nan nan nan nan nan nan nan nan nan nan nan nan nan nan nan nan nan nan nan nan nan nan nan nan nan nan nan nan nan nan nan nan nan nan nan nan nan nan nan nan nan nan nan nan nan nan nan nan nan
nan nan nan nan nan nan nan nan nan nan nan nan nan nan nan nan nan nan nan nan nan nan nan nan nan nan nan nan nan nan nan nan nan nan nan nan nan nan nan nan nan nan nan nan nan nan nan nan nan nan nan nan nan nan nan nan nan nan nan nan nan nan nan nan nan nan nan nan nan
nan nan nan nan nan nan nan nan nan nan nan nan nan nan nan nan nan nan nan nan nan nan nan nan nan nan nan nan nan nan nan nan nan nan nan nan nan nan nan nan nan nan nan nan nan nan nan nan nan nan nan nan nan nan nan nan nan nan nan nan nan nan nan nan nan nan nan nan nan
nan nan nan nan nan nan nan nan nan nan nan nan nan nan nan nan nan nan nan nan nan nan nan nan nan nan nan nan nan nan nan nan nan nan nan nan nan nan nan nan nan nan nan nan nan nan nan nan nan nan nan nan nan nan nan nan nan nan nan nan nan nan nan nan nan nan nan nan nan
nan nan nan nan nan nan nan nan nan nan nan nan nan nan nan nan nan nan nan nan nan nan nan nan nan nan nan nan nan nan nan nan nan nan nan nan nan nan nan nan nan nan nan nan nan nan nan nan nan nan nan nan nan nan nan nan nan nan nan nan nan nan nan nan nan nan nan nan nan
nan nan nan nan nan nan nan nan nan nan nan nan nan nan nan nan nan nan nan nan nan nan nan nan nan nan nan nan nan nan nan nan nan nan nan nan nan nan nan nan nan nan nan nan nan nan nan 0 1 1 1 0 nan nan nan nan nan nan nan nan nan nan nan nan nan nan nan nan nan
nan nan nan nan nan nan nan nan nan nan nan nan nan nan nan nan nan nan nan nan nan nan nan nan nan nan nan nan nan nan nan nan nan nan nan nan nan nan nan nan nan nan nan nan nan nan nan 0 1 1 2 3 nan nan nan nan nan nan nan nan nan nan nan nan nan nan nan nan nan
nan nan nan nan nan nan nan nan nan nan nan nan nan nan nan nan nan nan nan nan nan nan nan nan nan nan nan nan nan nan nan nan nan nan nan nan nan nan nan nan nan nan nan nan nan nan nan 0 1 1 2 6 1 nan nan nan nan nan nan nan nan nan nan nan nan nan nan nan nan
nan nan nan nan nan nan nan nan nan nan nan nan nan nan nan nan nan nan nan nan nan nan nan nan nan nan nan nan nan nan nan nan nan nan nan nan nan nan nan nan nan nan nan nan nan nan nan nan 0 0 2 6 1 nan nan nan nan nan nan nan nan nan nan nan nan nan nan nan nan
nan nan nan nan nan nan nan nan nan nan nan nan nan nan nan nan nan nan nan nan nan nan nan nan nan nan nan nan nan nan nan nan nan nan nan nan nan nan nan nan nan nan nan nan nan nan nan nan 0 0 2 5 nan nan nan nan nan nan nan nan nan nan nan nan nan nan nan nan nan
nan nan nan nan nan nan nan nan nan nan nan nan nan nan nan nan nan nan nan nan nan nan nan nan nan nan nan nan nan nan nan nan nan nan nan nan nan nan nan nan nan nan nan nan nan nan nan nan 0 0 2 3 nan nan nan nan nan nan nan nan nan nan nan nan nan nan nan nan nan
nan nan nan nan nan nan nan nan nan nan nan nan nan nan nan nan nan nan nan nan nan nan nan nan nan nan nan nan nan nan nan nan nan nan nan nan nan nan nan nan nan nan nan nan nan nan nan 0 1 1 3 1 nan nan nan nan nan nan nan nan nan nan nan nan nan nan nan nan nan
nan nan nan nan nan nan nan nan nan nan nan nan nan nan nan nan nan nan nan nan nan nan nan nan nan nan nan nan nan nan nan nan nan nan nan nan nan nan nan nan nan nan nan nan nan nan nan 0 2 2 4 nan nan nan nan nan nan nan nan nan nan nan nan nan nan nan nan nan nan
nan nan nan nan nan nan nan nan nan nan nan nan nan nan nan nan nan nan nan nan nan nan nan nan nan nan nan nan nan nan nan nan nan nan nan nan nan nan nan nan nan nan nan nan nan nan 0 1 3 3 4 nan nan nan nan nan nan nan nan nan nan nan nan nan nan nan nan nan nan
nan nan nan nan nan nan nan nan nan nan nan nan nan nan nan nan nan nan nan nan nan nan nan nan nan nan nan nan nan nan nan nan nan nan nan nan nan nan nan nan nan nan nan nan nan nan 0 2 4 4 6 nan nan nan nan nan nan nan nan nan nan nan nan nan nan nan nan nan nan
nan nan nan nan nan nan nan nan nan nan nan nan nan nan nan nan nan nan nan nan nan nan nan nan nan nan nan nan nan nan nan nan nan nan nan nan nan nan nan nan nan nan nan nan nan nan 1 2 5 5 7 0 nan nan nan nan nan nan nan nan nan nan nan nan nan nan nan nan nan
nan nan nan nan nan nan nan nan nan nan nan nan nan nan nan nan nan nan nan nan nan nan nan nan nan nan nan nan nan nan nan nan nan nan nan nan nan nan nan nan nan nan nan nan nan nan 1 3 5 5 10 nan nan nan nan nan nan nan nan nan nan nan nan nan nan nan nan nan nan